Weather History for Hanford, CA

Change the Weather History Date:

Sunday, March 3, 2013

  Actual Average Record
Temperature  
Mean Temperature 64 °F 54 °F  
Max Temperature 72 °F 66 °F 72 °F (2013)
Min Temperature 55 °F 42 °F 32 °F (2012)
Degree Days  
Heating Degree Days 1    
Month to date heating degree days 16  
Since 1 July heating degree days 2077  
Cooling Degree Days 0    
Month to date cooling degree days 0  
Year to date cooling degree days 0  
Growing Degree Days 14 (Base 50)    
Moisture  
Dew Point 44 °F    
Average Humidity 49    
Maximum Humidity 67    
Minimum Humidity 31    
Precipitation  
Precipitation T in 0.08 in 0.29 in (2006)
Month to date precipitation T 0.25  
Year to date precipitation 0.67 4.02  
Since 1 July precipitation 2.67 7.36  
Snow  
Snow 0.00 in - - ()
Month to date snowfall 0.0  
Since 1 July snowfall 0.0  
Snow Depth 0.00 in    
Sea Level Pressure  
Sea Level Pressure 30.04 in    
Wind  
Wind Speed 6 mph (NNW)    
Max Wind Speed 14 mph    
Max Gust Speed 17 mph    
Visibility 10 miles    
Events Rain    
T = Trace of Precipitation, MM = Missing Value Source: NWS Daily Summary

Daily Weather History Graph

Daily Weather History Graph

Search for Another Location

Airport:

Trip Planner

Search our weather history database for the weather conditions in past years. The results will help you decide how hot, cold, wet, or windy it might be!

Date:

Astronomy

Mar. 03, 2013 Rise Set
Actual Time 6:25 AM PST 5:55 PM PST
Civil Twilight 5:59 AM PST 6:21 PM PST
Nautical Twilight 5:30 AM PST 6:51 PM PST
Astronomical Twilight 5:00 AM PST 7:20 PM PST
Moon No Moon Rise 9:56 AM PST (3/3)
Length of Visible Light 12h 21m
Length of Day
11h 29m
Waning Gibbous, 62% of the Moon is Illuminated
Mar 3
Waning Gibbous
Mar 4
Last Quarter
Mar 11
New
Mar 19
First Quarter
Mar 27
Full

Hourly Weather History & Observations

Time (PST) Temp. Dew Point Humidity Pressure Visibility Wind Dir Wind Speed Gust Speed Precip Events Conditions
12:53 AM 64.0 °F 46.9 °F 54% 30.11 in 9.0 mi East 4.6 mph - N/A   Overcast
1:53 AM 63.0 °F 48.0 °F 58% 30.07 in 8.0 mi North 6.9 mph - N/A   Mostly Cloudy
2:53 AM 64.0 °F 46.9 °F 54% 30.06 in 8.0 mi Calm Calm - 0.00 in Rain Light Rain
3:53 AM 57.9 °F 48.9 °F 72% 30.06 in 7.0 mi Calm Calm - 0.00 in   Mostly Cloudy
4:53 AM 59.0 °F 48.0 °F 67% 30.06 in 9.0 mi West 4.6 mph - N/A   Overcast
5:53 AM 61.0 °F 46.9 °F 60% 30.05 in 9.0 mi WNW 4.6 mph - N/A   Overcast
6:53 AM 61.0 °F 45.0 °F 56% 30.05 in 10.0 mi WSW 3.5 mph - N/A   Overcast
7:53 AM 61.0 °F 45.0 °F 56% 30.06 in 10.0 mi NW 9.2 mph - N/A   Overcast
8:53 AM 62.1 °F 46.0 °F 56% 30.08 in 10.0 mi NNW 9.2 mph - N/A   Overcast
9:53 AM 66.9 °F 46.0 °F 47% 30.06 in 10.0 mi North 4.6 mph - N/A   Mostly Cloudy
10:53 AM 66.0 °F 48.9 °F 54% 30.06 in 10.0 mi ENE 4.6 mph - N/A   Overcast
11:53 AM 66.9 °F 44.1 °F 44% 30.06 in 10.0 mi North 4.6 mph - N/A   Overcast
12:53 PM 68.0 °F 45.0 °F 43% 30.04 in 10.0 mi Variable 3.5 mph - N/A   Overcast
1:53 PM 70.0 °F 41.0 °F 35% 30.02 in 10.0 mi North 8.1 mph - N/A   Overcast
2:53 PM 70.0 °F 39.0 °F 32% 30.02 in 10.0 mi North 9.2 mph - N/A   Mostly Cloudy
3:53 PM 72.0 °F 39.0 °F 30% 30.00 in 10.0 mi NNW 10.4 mph 17.3 mph N/A   Partly Cloudy
4:53 PM 69.1 °F 37.0 °F 31% 29.99 in 10.0 mi NW 10.4 mph - N/A   Clear
5:53 PM 64.9 °F 42.1 °F 43% 30.00 in 10.0 mi NNW 8.1 mph - N/A   Clear
6:53 PM 62.1 °F 44.1 °F 52% 30.01 in 10.0 mi NNW 4.6 mph - N/A   Scattered Clouds
7:53 PM 57.9 °F 41.0 °F 53% 30.01 in 10.0 mi NW 6.9 mph - N/A   Clear
8:53 PM 57.9 °F 42.1 °F 56% 30.02 in 10.0 mi NW 5.8 mph - N/A   Clear
9:53 PM 57.0 °F 43.0 °F 59% 30.03 in 10.0 mi WNW 8.1 mph - N/A   Mostly Cloudy
10:53 PM 55.0 °F 44.1 °F 67% 30.04 in 10.0 mi NW 10.4 mph - N/A   Mostly Cloudy
11:53 PM 55.0 °F 43.0 °F 64% 30.04 in 10.0 mi NW 10.4 mph - N/A   Overcast